Tracking 29892 objects as of 21-Nov-2024
HD Live streaming from Space Station
objects crossing your sky now

STARLINK-5740

Track STARLINK-5740 now!
10-day predictions
STARLINK-5740 is classified as:


NORAD ID: 55595
Int'l Code: 2023-020AC
Perigee: 565.6 km
Apogee: 566.9 km
Inclination: 43.0 °
Period: 95.8 minutes
Semi major axis: 6937 km
RCS: Unknown
Launch date: February 12, 2023
Source: United States (US)
Launch site: AIR FORCE EASTERN TEST RANGE (AFETR)
Your satellite tracking list
Your tracking list is empty




NASA's NSSDC Master Catalog

Two Line Element Set (TLE):
1 55595U 23020AC  24325.64207097  .00005104  00000-0  39268-3 0  9998
2 55595  43.0045  60.1898 0000982 290.6138  69.4599 15.02528177 97610
Source of the keplerian elements: AFSPC